#timestamp,LO_Frequency,Hit,StdDev 
1511686815.2,286047003.0,N
1511686835.9,286047004.5,N
1511686855.7,286047005.6,Y
1511686875.6,286046998.5,P
1511686895.4,286047000.9,N
1511686915.2,286047001.8,N
1511686935.1,286047000.4,N
1511686936.0,286047000.4,N
1511686955.8,286047001.2,N
1511686975.6,286047000.3,N
1511686995.5,286047002.1,N
1511687015.3,286047000.7,N
1511687035.1,286046993.5,Y
1511687055.9,286046991.3,P
1511687075.7,286046990.8,N
1511687095.5,286046990.4,N
1511687115.3,286046994.2,N
1511687135.2,286046993.3,N
1511687155.0,286046996.0,N
1511687155.9,286046996.0,N
1511687175.7,286046998.0,N
1511687195.6,286046997.0,N
1511687215.4,286047000.9,N
1511687235.2,286046999.7,N
1511687255.1,286046996.6,N
1511687256.0,286046996.6,N
1511687275.8,286046998.4,N
1511687295.6,286046999.5,N
1511687315.5,286046995.4,N
1511687335.3,286046998.5,N
1511687355.1,286046999.1,N
1511687375.9,286046996.7,N
1511687395.7,286046999.5,N
1511687415.5,286046996.2,N
1511687435.3,286046995.5,N
1511687455.2,286046997.8,N
1511687475.0,286046999.4,N
1511687475.9,286046999.4,N
1511687495.7,286046997.1,N
1511687515.6,286046994.2,N
1511687535.4,286046996.2,N
1511687555.2,286046991.8,N
1511687575.1,286046994.8,N
1511687576.0,286046994.8,N
1511687595.8,286046993.2,N
1511687615.6,286046991.4,Y
1511687635.5,286046994.3,P
1511687655.3,286046992.6,P
1511687675.1,286046992.7,P
1511687695.9,286046991.2,Y
1511687715.7,286046999.3,P
1511687735.5,286046997.0,N
1511687755.4,286046999.6,N
1511687775.2,286047000.6,N
1511687795.0,286047001.7,N
1511687795.9,286047001.7,N
1511687815.8,286047000.1,N
1511687835.6,286047004.6,N
1511687855.4,286047007.8,N
1511687875.3,286047008.5,N
1511687895.1,286047007.2,N
1511687896.0,286047007.2,N
1511687915.8,286047005.9,N
1511687935.7,286047003.0,N
1511687955.5,286047006.1,N
1511687975.3,286047004.7,N
1511687995.1,286047006.2,N
1511688015.9,286047008.8,N
1511688035.7,286047003.0,N
1511688055.5,286047007.6,N
1511688075.4,286047006.2,N
1511688095.2,286047004.9,N
1511688115.0,286047007.3,N
1511688115.9,286047007.3,N
1511688135.8,286047010.3,N
1511688155.6,286047005.7,N
1511688175.4,286047003.5,N
1511688195.3,286047004.6,N
1511688215.1,286047004.8,N
1511688216.0,286047004.8,N
1511688235.8,286047007.5,N
1511688255.7,286047003.0,N
1511688275.5,286047005.6,N
1511688295.3,286047002.9,N
1511688315.1,286047002.6,N
1511688335.9,286047001.5,N
1511688355.7,286047000.7,N
1511688375.5,286047000.0,N
1511688395.4,286047007.5,Y
1511688415.2,286047002.4,P
1511688435.0,286047002.8,N
1511688435.9,286047002.8,N
1511688455.8,286047000.1,N
1511688475.6,286046995.0,Y
1511688495.4,286046987.4,P
1511688515.3,286046983.5,N
1511688535.1,286046981.9,N
1511688555.8,286046977.1,N
1511688575.7,286046977.0,N
1511688595.5,286046974.4,N
1511688615.3,286046979.1,N
1511688635.2,286046973.2,Y
1511688655.0,286046988.5,P
1511688655.9,286046988.5,P
1511688675.7,286046987.0,P
1511688695.6,286046987.0,Y
1511688715.4,286047001.7,P
1511688735.2,286047000.1,N
1511688755.1,286046997.9,N
1511688756.0,286046997.9,N
1511688775.8,286046994.5,N
1511688795.6,286046995.7,N
1511688815.5,286046997.4,N
1511688835.3,286046997.0,N
1511688855.1,286046998.1,N
1511688875.9,286046999.1,N
1511688895.7,286046999.1,N
1511688915.5,286046994.9,N
1511688935.4,286046996.1,N
1511688955.2,286046996.4,N
1511688975.0,286046991.9,N
1511688975.9,286046991.9,N
1511688995.7,286046995.9,N
1511689015.6,286046993.8,N
1511689035.4,286046990.6,N
1511689055.2,286046991.4,N
1511689075.1,286046992.1,N
1511689076.0,286046992.1,N
1511689095.8,286046996.2,N
1511689115.6,286046997.1,N
1511689135.5,286046994.9,N
1511689155.3,286046996.7,N
1511689175.1,286047001.8,N
1511689195.9,286047002.0,N
1511689215.7,286047003.4,N
1511689235.5,286047004.2,N
1511689255.4,286047004.0,N
1511689275.2,286047003.9,N
1511689295.0,286047001.9,N
1511689295.9,286047001.9,N
1511689315.8,286047004.0,N
1511689335.6,286047002.9,N
1511689355.4,286047006.1,N
1511689375.2,286047009.9,N
1511689395.1,286047008.3,N
1511689396.0,286047008.3,N
1511689415.8,286047008.7,N
1511689435.6,286047008.9,N
1511689455.5,286047007.4,N
1511689475.3,286047009.0,N
1511689495.1,286047006.1,N
1511689515.9,286047008.3,N
1511689535.7,286047010.5,N
1511689555.5,286047009.0,N
1511689575.4,286047006.1,N
1511689595.2,286047007.2,N
1511689615.0,286047006.2,N
1511689615.9,286047006.2,N
1511689635.8,286047006.3,N
1511689655.6,286047003.3,N
1511689675.4,286047004.1,N
1511689695.3,286047004.8,N
1511689715.1,286047001.5,N
1511689716.0,286047001.5,N
1511689735.8,286047003.3,N
1511689755.6,286047005.8,N
1511689775.5,286047001.9,N
1511689795.3,286047001.3,N
1511689815.1,286047005.7,N
1511689835.9,286047004.7,N
1511689855.7,286047001.7,N
1511689875.5,286047004.1,N
1511689895.4,286047003.6,N
1511689915.2,286047005.7,N
1511689935.0,286047001.6,N
1511689935.9,286047001.6,N
1511689955.8,286047000.6,N
1511689975.6,286046999.3,N
1511689995.4,286047002.4,N
1511690015.3,286047001.4,N
1511690035.1,286047003.9,N
1511690036.0,286047003.9,N
1511690055.8,286047003.5,N
1511690075.7,286047004.8,N
1511690095.5,286047005.0,N
1511690115.3,286047006.1,Y
1511690135.2,286047004.1,P
1511690155.9,286047005.4,P
1511690175.7,286047007.2,P
1511690195.6,286047004.9,Y
1511690215.4,286046999.8,P
1511690235.2,286046999.7,N
1511690255.0,286047003.0,N
1511690256.0,286047003.0,N
1511690275.8,286047001.4,N
1511690295.6,286047000.1,N
1511690315.4,286046999.7,N
1511690335.3,286047001.4,N
1511690355.1,286047003.4,N
1511690375.9,286047005.8,Y
1511690395.7,286046998.9,P
